[[{"header":{"parameterUnit":"m.s-1","parameterCategory":2,"la1":30.2991,"la2":30.254,"lo1":-89.0895,"lo2":-89.0444,"dy":0.0017,"dx":0.0017,"nx":28,"ny":28,"refTime":"2025-09-01T21:00:00:Z","depth":"0","parameterNumber":2,"parameterNumberName":"U-component_of_CURRENTS"},"data":[0,0,0,0,0,0,0,0,0,0,0,0,0,0,0,0,0,0,0,0,0,0,0,0,0,0,0,0,0,0,0,0,0,0,0,0,0,0,0,0,0,0,0,0,0,0,0,0,0,0,0,0,0,0,0,0,0,0,0.3836,0.3837,0,0.3849,0.3849,0.3849,0.3826,0.3825,0.3825,0.3824,0.3799,0.3799,0.3799,0,0,0,0,0,0,0,0,0,0,0,0,0,0.3795,0.3796,0.3836,0.3837,0.3837,0.3849,0.3849,0.3849,0.3826,0.3825,0.3825,0.3824,0.3799,0.3799,0.3799,0,0,0,0,0,0,0,0,0,0,0,0,0,0.3808,0.3796,0.3836,0.383,0.3829,0.3849,0.3849,0.3849,0.3826,0.3825,0.3824,0.3824,0.3799,0.3799,0.3799,0.3811,0,0,0.3798,0.3798,0,0,0,0,0,0,0,0,0.3807,0.3809,0.383,0.383,0.383,0.3838,0.3825,0.3835,0.3826,0.3824,0.3824,0.3823,0.3811,0.381,0.381,0.381,0.3809,0.3798,0.3798,0.3797,0.3797,0,0,0,0,0,0,0,0.3806,0.3809,0.3838,0.3831,0.3831,0.3827,0.3828,0.3827,0.3818,0.3824,0.3823,0.383,0.381,0.381,0.3809,0.3809,0.3798,0.3797,0.3797,0.3797,0.3909,0.3912,0,0,0,0,0,0,0.3812,0.3808,0.3838,0.3839,0.382,0.3829,0.3829,0.3833,0.3819,0.3818,0.383,0.3829,0.3811,0.381,0.3808,0.3894,0.3797,0.3797,0.3797,0.3906,0.391,0.3913,0,0,0,0,0,0,0.3811,0.3814,0.3837,0.3826,0.3829,0.383,0.3835,0.3834,0.3837,0.3825,0.3822,0.3835,0.3811,0.3809,0.3831,0.389,0.3797,0.3797,0.3902,0.3907,0.3912,0.402,0,0,0,0,0,0,0.381,0.3814,0.3818,0.3826,0.383,0.386,0.3836,0.3835,0.3843,0.3841,0.3828,0.3825,0.381,0.3832,0.3831,0.3888,0.3796,0.3898,0.3905,0.391,0.4012,0.4028,0.4041,0,0,0,0,0,0.3808,0.382,0.3818,0.3822,0.3836,0.3862,0.3863,0.3859,0.3844,0.3856,0.3856,0.3825,0.387,0.3833,0.3831,0.389,0.3895,0.3903,0.391,0.4006,0.4025,0.4041,0,0,0,0,0,0,0.38,0.3819,0.3817,0.3832,0.3851,0.3859,0.3873,0.3865,0.3873,0.3873,0.385,0.3849,0.3903,0.3879,0.384,0.3945,0.3884,0.3891,0.3958,0.3975,0.399,0.4017,0.3796,0,0,0,0,0,0.3802,0.3817,0.3836,0.3848,0.3863,0.3868,0.3876,0.3877,0.3887,0.3888,0.3884,0.3895,0.3932,0.3936,0.3958,0.3993,0.4006,0.4037,0.4052,0.4064,0.4089,0.4163,0.4186,0.3937,0.3937,0.3937,0,0,0.3802,0.3815,0.3822,0.3848,0.3862,0.3902,0.3871,0.3896,0.3933,0.3886,0.3932,0.3944,0.3956,0.4017,0.4039,0.3999,0.4143,0.4073,0.4083,0.4102,0.4173,0.4197,0.4218,0.3942,0.3941,0.394,0,0,0.3821,0.3826,0.3852,0.3877,0.3909,0.3924,0.3935,0.3956,0.3972,0.401,0.4014,0.4065,0.4077,0.4126,0.4146,0.4251,0.4225,0.4251,0.4334,0.4405,0.4426,0.4444,0.4494,0.4516,0.4248,0.4248,0.4248,0,0.3821,0.3853,0.3864,0.3904,0.3932,0.394,0.3984,0.4013,0.4038,0.4073,0.4039,0.4142,0.4145,0.4259,0.4301,0.4287,0.4306,0.4261,0.4423,0.4442,0.4459,0.4505,0.4528,0.4254,0.4253,0.4253,0.4252,0,0.3865,0.3895,0.3918,0.3975,0.401,0.4046,0.4095,0.4139,0.4152,0.4179,0.4279,0.43,0.4362,0.4382,0.4369,0.4509,0.4478,0.4439,0.4376,0.4491,0.4532,0.4554,0.4263,0.426,0.4259,0.4257,0,0,0.3852,0.3932,0.3941,0.3972,0.4048,0.4075,0.4172,0.4254,0.4315,0.4359,0.4447,0.4536,0.4544,0.4572,0.458,0.4641,0.4778,0.4592,0.4593,0.4635,0.4926,0.4823,0.4836,0.4758,0.4763,0.4766,0.4906,0,0.3883,0.3958,0.4,0.4077,0.412,0.418,0.4261,0.434,0.44,0.4487,0.4559,0.4635,0.4618,0.4649,0.4724,0.4767,0.4841,0.4743,0.4814,0.4817,0.4707,0.4861,0.4594,0.4689,0.4927,0.493,0.4933,0,0.3908,0.3958,0.4031,0.4123,0.4149,0.4197,0.4327,0.4398,0.4542,0.4593,0.4705,0.4746,0.4889,0.4826,0.4995,0.4928,0.4952,0.4971,0.4975,0.486,0.4756,0.4614,0.472,0.4575,0.4966,0.4964,0.4961,0,0.3875,0.3975,0.4027,0.4058,0.417,0.422,0.4285,0.4423,0.4508,0.4662,0.474,0.4888,0.4968,0.5047,0.5109,0.5058,0.5262,0.5185,0.5126,0.5118,0.4898,0.4862,0.4865,0.5314,0.5314,0.5313,0.5313,0,0.388,0.3922,0.4006,0.4031,0.4111,0.4187,0.4291,0.4389,0.454,0.4655,0.4779,0.4905,0.5027,0.515,0.5176,0.5238,0.5326,0.519,0.5169,0.4926,0.4893,0.4758,0.4709,0.5318,0.5317,0.5316,0.5315,0,0.3839,0.3892,0.3952,0.4055,0.409,0.4139,0.4288,0.4373,0.4511,0.4674,0.4733,0.4956,0.5113,0.5218,0.5355,0.5316,0.5217,0.5367,0.5068,0.501,0.4764,0.4731,0.4616,0.4489,0.5319,0.5318,0.5317,0,0.3827,0.385,0.3947,0.3989,0.4033,0.4121,0.42,0.4347,0.4442,0.4703,0.4781,0.4997,0.5118,0.5292,0.527,0.5309,0.5187,0.5082,0.494,0.4761,0.4711,0.456,0.445,0.4695,0.4689,0.4684,0.468,0,0.3813,0.3835,0.3884,0.3957,0.4025,0.4114,0.4221,0.4295,0.4477,0.4589,0.4756,0.4867,0.5043,0.4975,0.5041,0.5027,0.4803,0.4978,0.4875,0.4313,0.4069,0.3928,0.4592,0.4635,0.4639,0.4642,0.4645,0.4647,0.379,0.3805,0.3852,0.391,0.3995,0.4064,0.4069,0.4188,0.428,0.4381,0.461,0.4641,0.4694,0.4732,0.4703,0.4454,0.4507,0.4272,0.4279,0.4168,0.3938,0.4508,0.4469,0.4473,0.4476,0.4478,0.448,0,0.3719,0.3745,0.381,0.3848,0.3874,0.3951,0.4043,0.3994,0.3995,0.4147,0.4216,0.42,0.4137,0.4148,0.397,0.3767,0.36,0.3662,0.338,0.3334,0.3903,0.3765,0.3471,0.3471,0.3471,0.3471,0.3471,0.3471,0.3683,0.3679,0.369,0.3684,0.3713,0.3656,0.3648,0.3609,0.3641,0.3577,0.3521,0.3595,0.3706,0.366,0.3413,0.3301,0.3043,0.2867,0.2952,0.3332,0.3388,0.3441,0.33,0.2912,0.2912,0.2178,0.2172,0.2168]},{"header":{"parameterUnit":"m.s-1","parameterCategory":2,"la1":30.2991,"la2":30.254,"lo1":-89.0895,"lo2":-89.0444,"dy":0.0017,"dx":0.0017,"nx":28,"ny":28,"refTime":"2025-09-01T21:00:00:Z","depth":"0","parameterNumber":3,"parameterNumberName":"V-component_of_CURRENTS"},"data":[0,0,0,0,0,0,0,0,0,0,0,0,0,0,0,0,0,0,0,0,0,0,0,0,0,0,0,0,0,0,0,0,0,0,0,0,0,0,0,0,0,0,0,0,0,0,0,0,0,0,0,0,0,0,0,0,0,0,0.0244,0.0244,0,0.0197,0.0196,0.0196,0.0162,0.0162,0.0162,0.0162,0.007,0.0068,0.0065,0,0,0,0,0,0,0,0,0,0,0,0,0,0.0256,0.0256,0.0244,0.0244,0.0243,0.0197,0.0196,0.0195,0.0163,0.0162,0.0162,0.0162,0.0071,0.0068,0.0065,0,0,0,0,0,0,0,0,0,0,0,0,0,0.0233,0.0256,0.0244,0.0223,0.022,0.0197,0.0196,0.0195,0.0163,0.0162,0.0162,0.0162,0.0072,0.0068,0.0065,0.0045,0,0,0.0054,0.0052,0,0,0,0,0,0,0,0,0.0234,0.0232,0.0226,0.0224,0.0222,0.0187,0.0167,0.0143,0.0163,0.0182,0.0162,0.0162,0.0106,0.01,0.0089,0.0041,0.0037,0.0053,0.0051,0.005,0.0049,0,0,0,0,0,0,0,0.0236,0.0233,0.0223,0.0226,0.0223,0.0199,0.0195,0.0162,0.0143,0.0181,0.0179,0.0176,0.0104,0.0093,0.0087,0.0036,0.0054,0.005,0.0048,0.0047,-0.0035,-0.0035,0,0,0,0,0,0,0.0248,0.0235,0.0225,0.0222,0.023,0.0199,0.0195,0.0197,0.0145,0.0137,0.0177,0.0175,0.0099,0.0091,0.0083,0.0076,0.005,0.0046,0.0044,-0.0035,-0.0035,-0.0035,0,0,0,0,0,0,0.0249,0.0248,0.0227,0.0229,0.0225,0.0199,0.0201,0.0196,0.0188,0.0142,0.0134,0.0175,0.0099,0.0088,0.0062,0.0072,0.0045,0.0042,-0.0035,-0.0035,-0.0035,0.005,0,0,0,0,0,0,0.0249,0.0248,0.0253,0.023,0.0225,0.0223,0.0201,0.0195,0.0188,0.0185,0.0138,0.0129,0.0098,0.0067,0.0058,0.0066,0.0039,-0.0035,-0.0035,-0.0035,0.0047,0.0052,0.0057,0,0,0,0,0,0.025,0.0262,0.0254,0.0253,0.0233,0.0224,0.022,0.0199,0.0188,0.019,0.0158,0.0131,0.006,0.0065,0.0054,0.0061,-0.0035,-0.0035,-0.0035,0.0045,0.0051,0.0057,0,0,0,0,0,0,0.027,0.0259,0.025,0.0258,0.0246,0.022,0.0219,0.0205,0.0181,0.0177,0.0132,0.0121,0.0101,0.0066,0.0072,0.0035,0.0007,0.0005,0.0071,0.0077,0.0082,0.0118,0.0036,0,0,0,0,0,0.0278,0.0283,0.0267,0.0273,0.027,0.0245,0.0238,0.0226,0.0202,0.0192,0.016,0.0122,0.0091,0.0074,0.004,0.0021,0.0016,0.0016,0.0021,0.0026,0.0047,0.0056,0.0065,-0.0035,-0.0035,-0.0035,0,0,0.0287,0.0282,0.0284,0.0277,0.0264,0.0274,0.024,0.0237,0.0246,0.0184,0.0182,0.014,0.0089,0.0072,0.0059,0.0045,0.005,0.0026,0.0031,0.0049,0.0057,0.0067,0.0076,-0.0035,-0.0035,-0.0035,0,0,0.0316,0.0304,0.0322,0.0319,0.0309,0.0294,0.0298,0.0276,0.0268,0.0256,0.0217,0.0188,0.0135,0.0112,0.0089,0.0102,0.0078,0.0078,0.0135,0.0144,0.0153,0.0161,0.0167,0.0175,0.008,0.0081,0.0081,0,0.033,0.0351,0.0325,0.0344,0.0349,0.031,0.0335,0.0321,0.0295,0.0297,0.0266,0.0212,0.016,0.0156,0.0151,0.0117,0.0117,0.0119,0.0155,0.0162,0.0169,0.0173,0.0181,0.0085,0.0084,0.0084,0.0083,0,0.0376,0.0393,0.0403,0.0416,0.0414,0.0428,0.041,0.0412,0.0389,0.0372,0.0361,0.0299,0.0271,0.024,0.0194,0.0213,0.0195,0.0165,0.0149,0.0186,0.0186,0.0193,0.0091,0.0089,0.0088,0.0087,0,0,0.0412,0.0434,0.0439,0.0465,0.0457,0.0466,0.0482,0.049,0.0517,0.0473,0.0509,0.043,0.0396,0.0369,0.0312,0.0305,0.0335,0.0257,0.0256,0.0282,0.036,0.0322,0.0326,0.0315,0.0316,0.0318,0.0341,0,0.046,0.0519,0.0509,0.0563,0.0594,0.0572,0.0595,0.0593,0.0579,0.0602,0.0545,0.0543,0.0445,0.0439,0.0416,0.0365,0.0357,0.0332,0.0304,0.0304,0.0282,0.0334,0.0324,0.0342,0.0348,0.0349,0.0349,0,0.0514,0.0548,0.061,0.0656,0.0667,0.0686,0.0725,0.0745,0.0753,0.0745,0.0731,0.0686,0.0668,0.0583,0.0529,0.052,0.0447,0.0398,0.0398,0.0343,0.028,0.0304,0.0354,0.0178,0.0359,0.0359,0.0358,0,0.0565,0.0622,0.0676,0.0691,0.0728,0.0755,0.0776,0.0787,0.0826,0.0848,0.0883,0.0835,0.0844,0.0754,0.0632,0.059,0.0585,0.0512,0.0414,0.041,0.0387,0.0378,0.0282,0.0483,0.0483,0.0483,0.0483,0,0.0627,0.0674,0.0707,0.0741,0.0816,0.0816,0.0892,0.0909,0.0953,0.103,0.0964,0.1029,0.089,0.0857,0.0714,0.0603,0.0649,0.0448,0.0423,0.0412,0.0406,0.0238,0.0133,0.0484,0.0483,0.0483,0.0483,0,0.0678,0.0698,0.0772,0.0823,0.0843,0.09,0.0974,0.1033,0.1064,0.1176,0.1198,0.1199,0.1171,0.1019,0.0902,0.073,0.0509,0.0552,0.0546,0.0519,0.0228,0.0128,0.0011,-0.0058,0.0447,0.0446,0.0446,0,0.0716,0.0755,0.0832,0.0881,0.0906,0.0984,0.104,0.1085,0.1161,0.1294,0.1366,0.1381,0.1431,0.1241,0.0957,0.0729,0.0533,0.0521,0.0419,0.0233,0.0105,0.0021,-0.0034,0.0422,0.0421,0.042,0.042,0,0.0789,0.0805,0.0861,0.0957,0.1024,0.1116,0.1207,0.1286,0.1377,0.1499,0.1672,0.1737,0.1567,0.1354,0.1005,0.0814,0.0383,0.0499,0.032,0.0095,-0.0011,-0.0095,0.0377,0.0415,0.0416,0.0416,0.0416,0.0416,0.0839,0.0886,0.095,0.1043,0.1127,0.1245,0.1344,0.1468,0.1638,0.1862,0.1907,0.2058,0.1673,0.1219,0.0939,0.0358,0.0359,0.0155,0.0059,-0.0002,-0.01,0.0357,0.0351,0.0351,0.0351,0.0351,0.0351,0,0.0901,0.0948,0.1035,0.1149,0.1253,0.1286,0.1455,0.1577,0.181,0.2041,0.2226,0.2118,0.1659,0.1146,0.0365,-0.002,-0.016,-0.0235,-0.0359,-0.0388,0.0037,0.0002,-0.0094,-0.0094,-0.0093,-0.0093,-0.0093,-0.0093,0.0939,0.1018,0.1054,0.1232,0.1321,0.148,0.1589,0.1789,0.1976,0.2261,0.2374,0.2429,0.1967,0.0625,-0.0246,-0.0423,-0.0698,-0.0768,-0.0878,-0.0612,-0.0583,-0.0556,-0.0614,-0.0837,-0.0838,-0.1258,-0.1263,-0.1266]}],[{"header":{"parameterUnit":"m.s-1","parameterCategory":2,"la1":30.2991,"la2":30.254,"lo1":-89.0895,"lo2":-89.0444,"dy":0.0017,"dx":0.0017,"nx":28,"ny":28,"refTime":"2025-09-01T21:00:00:Z","depth":"2","parameterNumber":2,"parameterNumberName":"U-component_of_CURRENTS"},"data":[0,0,0,0,0,0,0,0,0,0,0,0,0,0,0,0,0,0,0,0,0,0,0,0,0,0,0,0,0,0,0,0,0,0,0,0,0,0,0,0,0,0,0,0,0,0,0,0,0,0,0,0,0,0,0,0,0,0,0.2944,0.2944,0,0.2918,0.2918,0.2917,0.2884,0.2883,0.2882,0.2882,0.2898,0.2899,0.29,0,0,0,0,0,0,0,0,0,0,0,0,0,0.2897,0.2899,0.2944,0.2944,0.2943,0.2918,0.2918,0.2917,0.2884,0.2883,0.2882,0.2881,0.2898,0.2899,0.2901,0,0,0,0,0,0,0,0,0,0,0,0,0,0.29,0.2899,0.2944,0.2923,0.2921,0.2918,0.2918,0.2917,0.2884,0.2883,0.2882,0.2881,0.2898,0.2899,0.2901,0.2928,0,0,0.2905,0.2906,0,0,0,0,0,0,0,0,0.29,0.2902,0.2927,0.2925,0.2922,0.2902,0.2907,0.2923,0.2884,0.2899,0.2882,0.2881,0.2904,0.2905,0.2902,0.2929,0.293,0.2905,0.2906,0.2907,0.2907,0,0,0,0,0,0,0,0.29,0.2902,0.2934,0.2926,0.2923,0.2891,0.2892,0.2909,0.2908,0.2897,0.2895,0.2891,0.2903,0.2901,0.2903,0.293,0.2905,0.2907,0.2908,0.2908,0.3048,0.3051,0,0,0,0,0,0,0.2907,0.2903,0.2935,0.2934,0.2908,0.2893,0.2893,0.291,0.2907,0.2905,0.2892,0.2889,0.2899,0.2901,0.2903,0.2972,0.2907,0.2908,0.2909,0.3045,0.3049,0.3052,0,0,0,0,0,0,0.2906,0.2911,0.2936,0.2915,0.2916,0.2896,0.2914,0.291,0.2922,0.2902,0.2901,0.2909,0.2898,0.2901,0.2933,0.2971,0.2909,0.2911,0.3042,0.3046,0.305,0.3087,0,0,0,0,0,0,0.2905,0.2911,0.2918,0.2917,0.2918,0.294,0.2915,0.291,0.292,0.2917,0.2917,0.2916,0.2898,0.2931,0.2934,0.2972,0.2912,0.3038,0.3044,0.3049,0.3082,0.3092,0.31,0,0,0,0,0,0.2904,0.2906,0.2919,0.2922,0.2932,0.2941,0.2939,0.292,0.2922,0.2928,0.2934,0.2917,0.2967,0.2934,0.2937,0.2976,0.3036,0.3042,0.3048,0.3078,0.309,0.31,0,0,0,0,0,0,0.2892,0.2903,0.2917,0.2926,0.2941,0.2935,0.2937,0.2938,0.2949,0.2951,0.2941,0.2941,0.2981,0.2987,0.2951,0.3038,0.3005,0.3012,0.3026,0.3037,0.3046,0.3132,0.2913,0,0,0,0,0,0.2897,0.2907,0.2921,0.2937,0.2948,0.2956,0.2957,0.2952,0.2961,0.2965,0.2973,0.2993,0.3011,0.3029,0.304,0.309,0.3114,0.3125,0.3134,0.3141,0.3219,0.3265,0.3285,0.3072,0.3072,0.3072,0,0,0.2896,0.2908,0.2912,0.2935,0.2952,0.2978,0.2955,0.297,0.3005,0.2968,0.3025,0.3018,0.303,0.3072,0.3094,0.3082,0.3207,0.315,0.3155,0.3231,0.3273,0.3294,0.3312,0.3077,0.3076,0.3075,0,0,0.2907,0.2924,0.2938,0.2955,0.2979,0.2993,0.3008,0.3026,0.3048,0.3091,0.3078,0.3113,0.3138,0.3163,0.3177,0.3259,0.3243,0.3251,0.3375,0.3415,0.3433,0.3449,0.3462,0.3479,0.3265,0.3265,0.3265,0,0.29,0.2935,0.2944,0.297,0.2987,0.3013,0.3042,0.3079,0.3106,0.3134,0.3119,0.3201,0.3196,0.3279,0.3311,0.3282,0.3294,0.3315,0.3425,0.3443,0.3459,0.3468,0.3487,0.3268,0.3267,0.3267,0.3267,0,0.2933,0.2957,0.2974,0.3026,0.3046,0.3074,0.3124,0.3152,0.3185,0.3225,0.3311,0.3331,0.3375,0.3383,0.3378,0.3498,0.3461,0.3413,0.339,0.3482,0.3485,0.3504,0.3271,0.327,0.327,0.3269,0,0,0.2913,0.298,0.2984,0.3011,0.3074,0.3089,0.316,0.3226,0.3279,0.335,0.3436,0.3512,0.3534,0.3561,0.356,0.3646,0.3737,0.3604,0.3604,0.3606,0.3817,0.3711,0.3719,0.3693,0.3698,0.3702,0.3756,0,0.2937,0.2984,0.3018,0.3075,0.3104,0.314,0.3215,0.3276,0.3332,0.3422,0.3514,0.3606,0.3599,0.363,0.3709,0.3726,0.3798,0.3728,0.3744,0.3746,0.363,0.3743,0.3442,0.346,0.3774,0.3777,0.3779,0,0.2953,0.2979,0.3035,0.3098,0.3118,0.3167,0.3245,0.3313,0.3443,0.3488,0.3597,0.3672,0.3824,0.3801,0.3928,0.3876,0.3883,0.3912,0.3911,0.3837,0.3678,0.3432,0.3482,0.381,0.3808,0.3805,0.3803,0,0.2918,0.2984,0.3029,0.305,0.3138,0.3168,0.3227,0.3333,0.3404,0.3556,0.3625,0.3779,0.3867,0.3941,0.4009,0.3965,0.4148,0.4044,0.3969,0.3957,0.3729,0.3691,0.4172,0.4172,0.4172,0.4172,0.4172,0,0.2915,0.2936,0.3019,0.3033,0.3099,0.3165,0.3245,0.331,0.3443,0.3546,0.3678,0.3788,0.3921,0.4031,0.4058,0.4084,0.4157,0.4056,0.3996,0.3726,0.3689,0.4023,0.4005,0.4174,0.4173,0.4173,0.4173,0,0.2861,0.292,0.2964,0.3053,0.3084,0.3131,0.3245,0.3292,0.3433,0.3563,0.3638,0.3822,0.394,0.4058,0.4173,0.4121,0.4172,0.4162,0.3839,0.3743,0.3931,0.3915,0.4056,0.4053,0.4051,0.4049,0.4048,0,0.2827,0.2863,0.2957,0.2985,0.3028,0.3099,0.3142,0.3271,0.3333,0.357,0.3638,0.3835,0.3907,0.4037,0.4035,0.4057,0.4153,0.3776,0.3654,0.4009,0.3935,0.3922,0.3909,0.3336,0.3329,0.3323,0.3318,0,0.2769,0.283,0.286,0.293,0.2977,0.3003,0.3088,0.3145,0.3308,0.3418,0.3568,0.3663,0.3801,0.3689,0.3747,0.3718,0.3742,0.3653,0.4132,0.3416,0.3335,0.3261,0.3271,0.3265,0.327,0.3274,0.3277,0.3279,0.2723,0.2737,0.2802,0.2855,0.2904,0.2902,0.2886,0.2978,0.3055,0.3177,0.3356,0.3374,0.3436,0.3344,0.3269,0.3226,0.3464,0.3299,0.3315,0.3337,0.3249,0.317,0.305,0.3054,0.3057,0.306,0.3063,0,0.265,0.2682,0.2716,0.2761,0.2749,0.2806,0.2833,0.2771,0.2799,0.2928,0.2995,0.2776,0.2724,0.2803,0.2651,0.2652,0.2607,0.2543,0.2454,0.251,0.2559,0.2428,0.2013,0.2009,0.2006,0.2002,0,0,0.2621,0.2603,0.2609,0.2573,0.261,0.2505,0.2476,0.2431,0.2461,0.24,0.2399,0.2588,0.2721,0.2323,0.2283,0.2118,0.229,0.2038,0.289,0.2842,0.2886,0.3016,0.2881,0,0,0,0,0]},{"header":{"parameterUnit":"m.s-1","parameterCategory":2,"la1":30.2991,"la2":30.254,"lo1":-89.0895,"lo2":-89.0444,"dy":0.0017,"dx":0.0017,"nx":28,"ny":28,"refTime":"2025-09-01T21:00:00:Z","depth":"2","parameterNumber":3,"parameterNumberName":"V-component_of_CURRENTS"},"data":[0,0,0,0,0,0,0,0,0,0,0,0,0,0,0,0,0,0,0,0,0,0,0,0,0,0,0,0,0,0,0,0,0,0,0,0,0,0,0,0,0,0,0,0,0,0,0,0,0,0,0,0,0,0,0,0,0,0,0.0105,0.0105,0,0.0061,0.0061,0.006,0.0027,0.0027,0.0027,0.0027,-0.0045,-0.0047,-0.0049,0,0,0,0,0,0,0,0,0,0,0,0,0,0.0111,0.0112,0.0105,0.0105,0.0104,0.0061,0.0061,0.006,0.0027,0.0027,0.0027,0.0027,-0.0044,-0.0047,-0.0049,0,0,0,0,0,0,0,0,0,0,0,0,0,0.0091,0.0112,0.0105,0.0085,0.0082,0.0062,0.0061,0.006,0.0028,0.0027,0.0027,0.0027,-0.0044,-0.0046,-0.0049,-0.0063,0,0,-0.0057,-0.0059,0,0,0,0,0,0,0,0,0.0092,0.009,0.0088,0.0086,0.0084,0.0051,0.0036,0.0018,0.0028,0.0046,0.0027,0.0027,-0.0014,-0.0019,-0.0029,-0.0066,-0.0069,-0.0058,-0.0059,-0.006,-0.0061,0,0,0,0,0,0,0,0.0093,0.0092,0.0086,0.0088,0.0085,0.0061,0.0058,0.0033,0.0016,0.0045,0.0043,0.0041,-0.0016,-0.0027,-0.0031,-0.007,-0.0058,-0.006,-0.0062,-0.0063,-0.0121,-0.0121,0,0,0,0,0,0,0.0106,0.0093,0.0087,0.0085,0.009,0.0061,0.0058,0.006,0.0016,0.001,0.0041,0.004,-0.0022,-0.0028,-0.0034,-0.0037,-0.006,-0.0063,-0.0065,-0.0121,-0.0121,-0.0121,0,0,0,0,0,0,0.0106,0.0106,0.0089,0.0089,0.0086,0.0062,0.0064,0.006,0.0052,0.0014,0.0007,0.004,-0.0022,-0.003,-0.0049,-0.0041,-0.0064,-0.0067,-0.0121,-0.0121,-0.0121,-0.0054,0,0,0,0,0,0,0.0106,0.0106,0.0112,0.009,0.0086,0.0087,0.0065,0.0059,0.0052,0.005,0.0011,0.0003,-0.0023,-0.0045,-0.0052,-0.0045,-0.0069,-0.0121,-0.0121,-0.0121,-0.0056,-0.0052,-0.0047,0,0,0,0,0,0.0107,0.0119,0.0112,0.0112,0.0095,0.0087,0.0083,0.0063,0.0052,0.0054,0.0028,0.0005,-0.0049,-0.0047,-0.0055,-0.0049,-0.0121,-0.0121,-0.0121,-0.0058,-0.0052,-0.0048,0,0,0,0,0,0,0.0126,0.0116,0.0109,0.0118,0.0107,0.0083,0.0082,0.0069,0.0049,0.0045,0.0008,-0.0001,-0.0016,-0.0043,-0.004,-0.0067,-0.009,-0.0091,-0.0039,-0.0034,-0.003,-0.0006,-0.0071,0,0,0,0,0,0.0133,0.0139,0.0125,0.0132,0.0129,0.0106,0.01,0.0089,0.0069,0.006,0.0032,0.0002,-0.0022,-0.0035,-0.0062,-0.0075,-0.0093,-0.0078,-0.0074,-0.007,-0.0057,-0.0068,-0.0062,-0.012,-0.012,-0.012,0,0,0.0142,0.0138,0.014,0.0136,0.0124,0.0132,0.0102,0.0099,0.0108,0.0055,0.0053,0.0017,-0.0023,-0.0036,-0.0046,-0.0057,-0.0066,-0.007,-0.0066,-0.0055,-0.0067,-0.0061,-0.0056,-0.012,-0.012,-0.012,0,0,0.0168,0.0159,0.0175,0.0173,0.0165,0.0151,0.0155,0.0135,0.0128,0.0119,0.0084,0.0059,0.0018,-0.0002,-0.002,-0.0007,-0.0042,-0.0025,0.0018,0.0007,0.0013,0.0017,-0.0007,-0.0006,-0.0023,-0.0023,-0.0023,0,0.018,0.0202,0.0178,0.0197,0.0202,0.0166,0.0189,0.0176,0.0154,0.0157,0.0128,0.0078,0.0039,0.0033,0.003,0.0005,-0.0013,0.0004,0.0015,0.0019,0.0023,-0.0003,-0.0002,-0.0019,-0.002,-0.002,-0.002,0,0.0223,0.024,0.025,0.0262,0.026,0.0274,0.0257,0.0259,0.0239,0.0222,0.0209,0.0153,0.0126,0.0102,0.0066,0.0069,0.0043,0.0025,0.0008,0.0033,0.0003,0.0003,-0.0015,-0.0016,-0.0017,-0.0018,0,0,0.0256,0.0278,0.0282,0.0307,0.03,0.0309,0.0324,0.0332,0.0355,0.031,0.0334,0.0266,0.0229,0.0206,0.0156,0.0135,0.0128,0.009,0.0088,0.0077,0.0095,0.006,0.0056,0.0112,0.0113,0.0113,0.0061,0,0.0302,0.0356,0.0349,0.0398,0.0426,0.0407,0.0428,0.0426,0.0412,0.0424,0.0365,0.0358,0.0271,0.0261,0.0224,0.0161,0.0132,0.0143,0.0063,0.006,0.0036,0.0057,0.0081,0.0036,0.0061,0.0061,0.0061,0,0.0352,0.0384,0.0442,0.0485,0.0495,0.0511,0.0547,0.0566,0.0563,0.0553,0.0526,0.0478,0.0436,0.0365,0.0264,0.0274,0.0189,0.013,0.0127,0.0075,0.0026,0.0015,0.0034,0.0061,0.0061,0.0061,0.0061,0,0.04,0.0452,0.0503,0.0517,0.0552,0.0577,0.0596,0.0604,0.0646,0.0644,0.0671,0.0592,0.0578,0.0465,0.0322,0.0298,0.0216,0.017,0.0057,0.0053,0.0049,0.0044,0.0106,0.0106,0.0107,0.0107,0.0107,0,0.0458,0.05,0.0532,0.0563,0.0636,0.0634,0.071,0.0718,0.0755,0.0828,0.0743,0.0778,0.0604,0.053,0.0377,0.0222,0.0255,0.0074,0.0045,0.007,0.0067,0.007,0.0066,0.0105,0.0105,0.0106,0.0106,0,0.0504,0.0523,0.0592,0.064,0.0662,0.0715,0.0798,0.0859,0.0876,0.0975,0.0987,0.0929,0.0828,0.0645,0.0471,0.0309,0.0158,0.0092,0.0124,0.0099,-0.0018,-0.0017,-0.004,-0.0042,-0.0043,-0.0044,-0.0045,0,0.0534,0.0573,0.0651,0.0707,0.0732,0.0813,0.0879,0.0917,0.0996,0.1079,0.114,0.1072,0.1038,0.0752,0.0471,0.0205,0.0165,0.0037,-0.0011,-0.0003,-0.0029,-0.0027,-0.0025,0.0003,0.0002,0.0002,0.0002,0,0.0596,0.0617,0.0675,0.0785,0.0861,0.0975,0.1073,0.1148,0.1224,0.1302,0.1391,0.1371,0.1105,0.0832,0.0451,0.0266,0.0076,0.0019,0.0047,0.0033,0.0032,0.0008,0.001,-0.0001,-0.0001,-0.0001,-0.0001,-0.0001,0.0643,0.0692,0.0766,0.0875,0.0973,0.1119,0.1219,0.1335,0.147,0.158,0.1557,0.1521,0.1212,0.0717,0.0398,0.0054,0.0065,-0.0071,-0.0068,-0.0065,-0.0053,-0.0056,-0.0105,-0.0106,-0.0106,-0.0106,-0.0106,0,0.0705,0.076,0.0858,0.0992,0.1109,0.1157,0.1339,0.1436,0.1596,0.1675,0.1723,0.1425,0.1118,0.0765,0.026,-0.0049,-0.0068,-0.0152,-0.0106,-0.01,-0.0096,-0.0084,-0.0146,-0.0147,-0.0148,-0.0149,0,0,0.0741,0.0832,0.0876,0.1073,0.1175,0.1339,0.1444,0.1589,0.1678,0.173,0.1704,0.1631,0.1219,0.0843,0.0434,0.0145,0.0089,0.0083,0.0148,0.0257,0.0265,-0.0016,0.0011,0,0,0,0,0]}],[{"header":{"parameterUnit":"m.s-1","parameterCategory":2,"la1":30.2991,"la2":30.254,"lo1":-89.0895,"lo2":-89.0444,"dy":0.0017,"dx":0.0017,"nx":28,"ny":28,"refTime":"2025-09-01T21:00:00:Z","depth":"4","parameterNumber":2,"parameterNumberName":"U-component_of_CURRENTS"},"data":[0,0,0,0,0,0,0,0,0,0,0,0,0,0,0,0,0,0,0,0,0,0,0,0,0,0,0,0,0,0,0,0,0,0,0,0,0,0,0,0,0,0,0,0,0,0,0,0,0,0,0,0,0,0,0,0,0,0,0.1653,0.1653,0,0.1711,0.1711,0.1712,0.1755,0.1755,0.1756,0.1756,0.1809,0.181,0.1811,0,0,0,0,0,0,0,0,0,0,0,0,0,0.1596,0.1597,0.1652,0.1653,0.1654,0.1711,0.1711,0.1712,0.1755,0.1755,0.1756,0.1756,0.1809,0.181,0.1811,0,0,0,0,0,0,0,0,0,0,0,0,0,0.1633,0.1597,0.1652,0.1683,0.1687,0.1711,0.1711,0.1712,0.1754,0.1755,0.1756,0.1757,0.1808,0.181,0.1811,0.1804,0,0,0.1815,0.1816,0,0,0,0,0,0,0,0,0.163,0.1634,0.1678,0.1681,0.1685,0.1728,0.1711,0.1743,0.1754,0.1727,0.1756,0.1757,0.1782,0.1785,0.1792,0.1807,0.1809,0.1815,0.1816,0.1817,0.1817,0,0,0,0,0,0,0,0.1628,0.1632,0.1674,0.1679,0.1683,0.1701,0.1706,0.1717,0.1748,0.173,0.1733,0.1742,0.1784,0.1791,0.1794,0.181,0.1815,0.1817,0.1818,0.1818,0.1911,0.1913,0,0,0,0,0,0,0.1622,0.163,0.1672,0.1676,0.1661,0.1701,0.1708,0.1712,0.1748,0.1755,0.1741,0.1744,0.1788,0.1792,0.1796,0.1867,0.1817,0.1818,0.1819,0.191,0.1912,0.1913,0,0,0,0,0,0,0.162,0.1625,0.167,0.1656,0.1663,0.1701,0.1706,0.1713,0.1756,0.1757,0.1764,0.1782,0.1789,0.1794,0.1834,0.1867,0.1819,0.182,0.1908,0.191,0.1912,0.1961,0,0,0,0,0,0,0.1618,0.1624,0.1643,0.1655,0.1664,0.1703,0.1706,0.1713,0.1759,0.1764,0.1794,0.1797,0.179,0.1832,0.1835,0.1868,0.1821,0.1906,0.1909,0.1912,0.1957,0.1964,0.1971,0,0,0,0,0,0.1616,0.1629,0.1643,0.1649,0.1682,0.1704,0.1711,0.1739,0.176,0.1781,0.1804,0.1798,0.1854,0.1834,0.1838,0.1872,0.1904,0.1908,0.1911,0.1954,0.1963,0.1971,0,0,0,0,0,0,0.1615,0.1636,0.1651,0.1671,0.1698,0.1713,0.1743,0.1761,0.1797,0.1814,0.1815,0.182,0.1871,0.1865,0.1843,0.1909,0.188,0.1884,0.1911,0.1919,0.1926,0.1917,0.1822,0,0,0,0,0,0.1623,0.1644,0.1662,0.1687,0.1702,0.1732,0.1753,0.1773,0.1797,0.1816,0.1833,0.1857,0.1883,0.1897,0.1915,0.1946,0.1964,0.1973,0.198,0.1985,0.1982,0.2064,0.2079,0.1925,0.1925,0.1925,0,0,0.163,0.1647,0.1661,0.169,0.1717,0.174,0.1748,0.179,0.1817,0.1815,0.1867,0.1887,0.1899,0.1937,0.1959,0.1939,0.2037,0.199,0.1995,0.1988,0.207,0.2085,0.2098,0.1928,0.1927,0.1927,0,0,0.1644,0.1673,0.1692,0.1716,0.176,0.1774,0.1795,0.1828,0.1856,0.1902,0.1912,0.1949,0.1986,0.1994,0.2004,0.206,0.2076,0.2078,0.2099,0.218,0.2193,0.2205,0.2237,0.2252,0.2075,0.2075,0.2075,0,0.1657,0.1679,0.1704,0.1727,0.1753,0.1793,0.1819,0.1849,0.1892,0.191,0.1929,0.1992,0.201,0.2043,0.2069,0.2075,0.2115,0.2065,0.219,0.2202,0.2213,0.2243,0.2259,0.2078,0.2077,0.2077,0.2077,0,0.167,0.1705,0.1723,0.1764,0.1792,0.1828,0.1863,0.1899,0.1944,0.1964,0.2024,0.2051,0.2087,0.2103,0.2108,0.2188,0.2188,0.2196,0.2167,0.2232,0.2259,0.2274,0.2082,0.2081,0.208,0.2079,0,0,0.1654,0.1719,0.1732,0.1755,0.1819,0.1834,0.1888,0.1928,0.1975,0.2014,0.2071,0.2111,0.2136,0.215,0.2166,0.2225,0.2342,0.2253,0.2256,0.228,0.2508,0.235,0.2351,0.2393,0.2397,0.2399,0.2491,0,0.1665,0.1705,0.1742,0.1792,0.1812,0.1865,0.1913,0.1956,0.2015,0.208,0.2105,0.2178,0.2153,0.2206,0.2255,0.2335,0.2388,0.2315,0.2444,0.2447,0.2297,0.2365,0.2409,0.2502,0.2505,0.2508,0.251,0,0.1658,0.1688,0.1736,0.1801,0.182,0.1866,0.1947,0.1996,0.2082,0.2136,0.2188,0.2234,0.2305,0.231,0.2428,0.2395,0.2458,0.2501,0.2507,0.235,0.2317,0.2428,0.2537,0.2535,0.2533,0.2531,0.2529,0,0.1608,0.1679,0.1718,0.1742,0.1824,0.1869,0.1927,0.2014,0.2071,0.2195,0.226,0.2329,0.2412,0.2485,0.2556,0.2533,0.2699,0.2675,0.2571,0.2559,0.2652,0.2638,0.2779,0.2779,0.2778,0.2778,0.2778,0,0.1581,0.1615,0.1708,0.1729,0.1787,0.1859,0.1947,0.2015,0.2139,0.2201,0.2298,0.2359,0.2481,0.2568,0.2606,0.262,0.274,0.2578,0.2581,0.2667,0.2654,0.2661,0.2647,0.2782,0.2781,0.278,0.278,0,0.1512,0.158,0.1622,0.1725,0.1766,0.1808,0.1951,0.1998,0.2146,0.2242,0.2294,0.2434,0.2539,0.2615,0.2759,0.268,0.2721,0.2705,0.2779,0.2785,0.2507,0.2494,0.2574,0.2569,0.2565,0.2562,0.2559,0,0.1472,0.1494,0.1603,0.1628,0.1687,0.1774,0.1825,0.1982,0.2038,0.2248,0.227,0.2444,0.251,0.2552,0.2661,0.2706,0.2685,0.2674,0.2578,0.2495,0.2492,0.2485,0.2477,0.2553,0.2552,0.2551,0.255,0,0.139,0.1453,0.1489,0.155,0.161,0.165,0.1749,0.179,0.1962,0.212,0.2202,0.2269,0.2383,0.2455,0.2527,0.2549,0.2655,0.2632,0.2639,0.2549,0.2471,0.247,0.2467,0.2537,0.2539,0.254,0.2541,0,0.1334,0.1341,0.1406,0.1447,0.1504,0.1503,0.1572,0.1646,0.1736,0.1979,0.2007,0.2185,0.2353,0.2378,0.2436,0.2453,0.2408,0.2316,0.2338,0.2354,0.2241,0.2107,0.2071,0,0,0,0,0,0.1264,0.1267,0.129,0.1316,0.136,0.1399,0.15,0.1575,0.1767,0.1769,0.1889,0.1982,0.208,0.2179,0.2154,0.2337,0.2411,0.2296,0.2314,0.2461,0.2477,0.2365,0,0,0,0,0,0,0.1218,0.1242,0.1251,0.1196,0.1195,0.1223,0.1285,0.1402,0.1422,0.1633,0.1697,0.1862,0.1987,0.208,0.2118,0.2149,0.2118,0.2423,0.2417,0.2453,0.2467,0.2479,0.2369,0,0,0,0,0]},{"header":{"parameterUnit":"m.s-1","parameterCategory":2,"la1":30.2991,"la2":30.254,"lo1":-89.0895,"lo2":-89.0444,"dy":0.0017,"dx":0.0017,"nx":28,"ny":28,"refTime":"2025-09-01T21:00:00:Z","depth":"4","parameterNumber":3,"parameterNumberName":"V-component_of_CURRENTS"},"data":[0,0,0,0,0,0,0,0,0,0,0,0,0,0,0,0,0,0,0,0,0,0,0,0,0,0,0,0,0,0,0,0,0,0,0,0,0,0,0,0,0,0,0,0,0,0,0,0,0,0,0,0,0,0,0,0,0,0,0.011,0.011,0,0.0082,0.0081,0.0081,0.0058,0.0058,0.0058,0.0058,0.0017,0.0016,0.0015,0,0,0,0,0,0,0,0,0,0,0,0,0,0.0108,0.0108,0.011,0.011,0.011,0.0082,0.0081,0.0081,0.0058,0.0058,0.0058,0.0058,0.0017,0.0016,0.0015,0,0,0,0,0,0,0,0,0,0,0,0,0,0.0096,0.0108,0.011,0.0096,0.0095,0.0082,0.0081,0.0081,0.0058,0.0058,0.0058,0.0058,0.0018,0.0016,0.0015,0.0008,0,0,0.001,0.0009,0,0,0,0,0,0,0,0,0.0097,0.0096,0.0099,0.0097,0.0096,0.0075,0.0065,0.0056,0.0058,0.0071,0.0058,0.0058,0.0036,0.0033,0.0026,0.0006,0.0004,0.001,0.0009,0.0008,0.0008,0,0,0,0,0,0,0,0.0098,0.0097,0.0097,0.0098,0.0097,0.0079,0.0077,0.0063,0.0053,0.007,0.0068,0.0067,0.0035,0.0028,0.0025,0.0004,0.001,0.0009,0.0008,0.0007,-0.0007,-0.0007,0,0,0,0,0,0,0.0106,0.0098,0.0098,0.0097,0.0097,0.0079,0.0077,0.008,0.0054,0.005,0.0068,0.0067,0.003,0.0027,0.0023,0.0032,0.0008,0.0007,0.0006,-0.0008,-0.0007,-0.0007,0,0,0,0,0,0,0.0106,0.0107,0.01,0.0097,0.0095,0.008,0.0083,0.008,0.0076,0.0052,0.0048,0.0068,0.003,0.0026,0.0021,0.0029,0.0006,0.0005,-0.0008,-0.0008,-0.0007,0.0037,0,0,0,0,0,0,0.0106,0.0107,0.0113,0.0098,0.0096,0.0099,0.0083,0.008,0.0076,0.0075,0.0051,0.0047,0.003,0.0024,0.002,0.0027,0.0004,-0.0009,-0.0008,-0.0007,0.0035,0.0039,0.0043,0,0,0,0,0,0.0106,0.0118,0.0114,0.0114,0.0105,0.01,0.0097,0.0084,0.0077,0.0079,0.0066,0.0048,0.0027,0.0023,0.0018,0.0025,-0.001,-0.0008,-0.0007,0.0033,0.0038,0.0043,0,0,0,0,0,0,0.0119,0.0116,0.0111,0.0121,0.0114,0.0097,0.0098,0.0089,0.0079,0.0078,0.0054,0.005,0.0047,0.0032,0.0028,0.0024,0.0006,0.0006,0.0038,0.0043,0.0047,0.0061,0.0002,0,0,0,0,0,0.0126,0.0134,0.0125,0.0132,0.0131,0.0115,0.0111,0.0103,0.0093,0.0088,0.0073,0.0058,0.0048,0.0043,0.0029,0.0028,0.0001,0.003,0.0034,0.0037,0.0046,0.0009,0.0011,-0.0003,-0.0003,-0.0003,0,0,0.0132,0.0132,0.0136,0.0136,0.0128,0.0136,0.0112,0.0112,0.0122,0.0085,0.0093,0.007,0.005,0.0049,0.0047,0.0038,0.0026,0.0039,0.0042,0.0049,0.0011,0.0012,0.0013,-0.0002,-0.0002,-0.0002,0,0,0.0153,0.015,0.0164,0.0164,0.0161,0.0152,0.0155,0.0142,0.014,0.0142,0.0119,0.0105,0.0089,0.0077,0.0069,0.0088,0.0047,0.0081,0.0115,0.0078,0.0079,0.0079,0.0043,0.004,0.0085,0.0085,0.0085,0,0.0162,0.0181,0.0167,0.0182,0.0189,0.0164,0.0182,0.0177,0.0165,0.0167,0.0152,0.0124,0.0105,0.0104,0.0111,0.0097,0.0068,0.0098,0.0083,0.0083,0.0082,0.0045,0.0041,0.0087,0.0087,0.0087,0.0087,0,0.0194,0.021,0.0219,0.0233,0.0235,0.0247,0.024,0.0244,0.0234,0.0221,0.0214,0.0181,0.0167,0.0155,0.0141,0.0132,0.0108,0.009,0.0071,0.0086,0.0046,0.0041,0.0091,0.009,0.0089,0.0088,0,0,0.0215,0.0239,0.0242,0.0264,0.0266,0.0275,0.0293,0.03,0.0316,0.0286,0.0298,0.0268,0.0238,0.0228,0.0197,0.0166,0.0135,0.0132,0.0129,0.0097,0.0051,0.0039,0.0032,0.0109,0.0108,0.0108,0.0023,0,0.0247,0.0291,0.0291,0.0334,0.0357,0.0349,0.0369,0.037,0.0362,0.0365,0.0321,0.0315,0.027,0.0263,0.0224,0.016,0.0124,0.016,0.0041,0.0038,0.0025,0.0027,0.0106,0.0019,0.0018,0.0017,0.0016,0,0.0281,0.0309,0.0357,0.0396,0.0405,0.0425,0.0455,0.0474,0.0465,0.0456,0.043,0.039,0.0349,0.0307,0.0196,0.0218,0.0145,0.0085,0.008,0.0053,0.0017,0.0,0.0006,0.0007,0.0008,0.0008,0.0009,0,0.0309,0.0356,0.0399,0.0414,0.0449,0.0474,0.0494,0.05,0.0534,0.0518,0.0525,0.0452,0.0431,0.0322,0.0203,0.0197,0.0071,0.0047,-0.0036,-0.0039,-0.0023,-0.0023,-0.0032,-0.0032,-0.0032,-0.0031,-0.0031,0,0.0345,0.0382,0.042,0.0447,0.0509,0.0516,0.0577,0.0586,0.0609,0.0647,0.0578,0.0579,0.0433,0.0345,0.0221,0.0078,0.0081,-0.0028,-0.0059,-0.0003,0.0001,-0.0027,-0.0026,-0.0035,-0.0034,-0.0033,-0.0033,0,0.0368,0.0391,0.0451,0.0502,0.0526,0.0572,0.065,0.0697,0.07,0.075,0.0751,0.0678,0.0555,0.0399,0.0224,0.0116,-0.0028,-0.008,-0.0003,-0.003,-0.0121,-0.0116,-0.0183,-0.0184,-0.0185,-0.0186,-0.0186,0,0.0383,0.0416,0.0494,0.0542,0.0572,0.0645,0.0704,0.0744,0.0796,0.0809,0.0835,0.0739,0.0665,0.0412,0.0234,-0.0011,-0.0047,-0.0127,-0.0129,-0.0112,-0.0136,-0.013,-0.0124,-0.0188,-0.0188,-0.0188,-0.0188,0,0.0416,0.0443,0.049,0.0586,0.0662,0.0754,0.0835,0.0881,0.0927,0.0931,0.0905,0.0773,0.0633,0.0422,0.0232,0.0055,-0.0081,-0.0137,-0.0137,-0.0139,-0.0119,-0.014,-0.0133,-0.0192,-0.0191,-0.0191,-0.0191,0,0.0439,0.0477,0.0541,0.0628,0.0727,0.0828,0.0874,0.0931,0.0979,0.0985,0.0972,0.0813,0.0722,0.0456,0.0281,0.0104,0.0053,-0.0012,-0.0019,-0.0018,0.005,0.0101,0.0073,0,0,0,0,0,0.046,0.0504,0.0582,0.0676,0.0776,0.0836,0.0947,0.0985,0.1025,0.1019,0.0999,0.0865,0.0605,0.0491,0.0313,0.025,0.0015,0.0033,-0.0065,-0.0209,-0.0205,-0.0156,0,0,0,0,0,0,0.0474,0.0541,0.0576,0.0699,0.0769,0.0887,0.0963,0.0997,0.0991,0.0996,0.0864,0.08,0.055,0.0699,0.0299,0.0246,0.0156,-0.0086,-0.0091,-0.0211,-0.0208,-0.0205,-0.0153,0,0,0,0,0]}]]